FW8288 Weather Reports


Display with metric or nautical units.
time (UTC)temp
F
wind
direction
speed
MPH
gust
MPH
rain 1hr
in
rain 24hr
in
rain mn
in
humidity
%
barometer
mb
20210924060249 64 0 0.0 0.0 0.00 0.00 0.00 79 1018.3
20210924054755 65 0 0.0 0.0 0.00 0.00 0.00 77 1018.2
20210924053129 66 0 0.0 0.0 0.00 0.00 0.00 74 1018.1
20210924051644 66 0 0.0 1.0 0.00 0.00 0.00 73 1018.0
20210924050131 66 0 0.0 1.0 0.00 0.00 0.00 72 1018.0
20210924044743 67 159 0.0 1.0 0.00 0.00 0.00 71 1018.0
20210924043157 67 0 0.0 1.0 0.00 0.00 0.00 71 1018.0
20210924041702 67 131 0.0 1.0 0.00 0.00 0.00 70 1018.0
20210924040146 68 0 0.0 2.0 0.00 0.00 0.00 69 1018.1
20210924034641 68 116 0.0 1.0 0.00 0.00 0.00 68 1018.1
20210924033137 69 0 0.0 2.0 0.00 0.00 0.00 66 1018.2
20210924031756 69 149 0.0 4.0 0.00 0.00 0.00 65 1018.2
20210924030132 70 0 0.0 2.0 0.00 0.00 0.00 64 1018.0
20210924024646 70 86 0.0 3.0 0.00 0.00 0.00 63 1018.0
20210924023111 71 152 1.0 3.0 0.00 0.00 0.00 62 1017.9
20210924021651 71 72 1.0 4.0 0.00 0.00 0.00 60 1017.8
20210924020114 72 64 1.0 5.0 0.00 0.00 0.00 59 1017.7
20210924014933 73 115 0.0 4.0 0.00 0.00 0.00 56 1017.7
20210924013224 74 76 1.0 4.0 0.00 0.00 0.00 51 1017.6
20210924011838 74 0 0.0 1.0 0.00 0.00 0.00 49 1017.4
20210924010204 75 138 0.0 0.0 0.00 0.00 0.00 47 1017.2
20210924004823 76 0 0.0 1.0 0.00 0.00 0.00 46 1017.1
20210924003203 77 0 0.0 1.0 0.00 0.00 0.00 44 1017.1
20210924001719 78 149 0.0 2.0 0.00 0.00 0.00 42 1017.1
20210924000107 79 134 0.0 1.0 0.00 0.00 0.00 41 1017.0
20210923234626 80 100 0.0 2.0 0.00 0.00 0.00 39 1017.1
20210923233124 82 70 1.0 3.0 0.00 0.00 0.00 35 1016.9
20210923231705 82 56 1.0 3.0 0.00 0.00 0.00 34 1016.9
20210923230208 83 60 1.0 3.0 0.00 0.00 0.00 33 1016.9
20210923224645 83 39 1.0 4.0 0.00 0.00 0.00 32 1017.0
20210923223234 83 31 1.0 5.0 0.00 0.00 0.00 32 1017.1
20210923221631 83 30 1.0 5.0 0.00 0.00 0.00 32 1017.1
20210923220218 83 79 2.0 4.0 0.00 0.00 0.00 32 1017.1
20210923214811 84 88 0.0 4.0 0.00 0.00 0.00 32 1017.1
20210923213222 84 84 2.0 5.0 0.00 0.00 0.00 31 1017.1
20210923211631 85 21 1.0 5.0 0.00 0.00 0.00 31 1017.1
20210923210149 84 53 0.0 6.0 0.00 0.00 0.00 31 1017.2
20210923204705 85 80 2.0 4.0 0.00 0.00 0.00 30 1017.3
20210923203213 84 104 2.0 5.0 0.00 0.00 0.00 30 1017.5
20210923201747 85 248 1.0 4.0 0.00 0.00 0.00 30 1017.5
20210923200321 85 340 2.0 5.0 0.00 0.00 0.00 29 1018.0
20210923194723 85 39 2.0 6.0 0.00 0.00 0.00 30 1018.1
20210923193159 85 95 2.0 6.0 0.00 0.00 0.00 30 1018.5
20210923191622 84 86 1.0 6.0 0.00 0.00 0.00 30 1018.7
20210923190142 83 61 2.0 5.0 0.00 0.00 0.00 31 1018.9
20210923184713 83 85 2.0 6.0 0.00 0.00 0.00 34 1019.2
20210923183209 84 50 1.0 6.0 0.00 0.00 0.00 32 1019.4
20210923181731 83 349 2.0 6.0 0.00 0.00 0.00 34 1019.6
20210923180140 83 77 2.0 6.0 0.00 0.00 0.00 35 1019.9
20210923174641 83 178 1.0 5.0 0.00 0.00 0.00 36 1020.0
20210923173233 82 43 1.0 5.0 0.00 0.00 0.00 36 1020.2
20210923171702 81 41 2.0 7.0 0.00 0.00 0.00 38 1020.3
20210923170124 80 61 1.0 3.0 0.00 0.00 0.00 39 1020.4
20210923164644 79 44 2.0 7.0 0.00 0.00 0.00 41 1020.5
20210923163135 78 80 2.0 6.0 0.00 0.00 0.00 41 1020.6
20210923161748 78 75 1.0 5.0 0.00 0.00 0.00 40 1020.9
20210923160131 77 96 2.0 6.0 0.00 0.00 0.00 45 1020.9
20210923154633 77 52 1.0 6.0 0.00 0.00 0.00 49 1020.9
20210923153121 76 92 2.0 6.0 0.00 0.00 0.00 52 1020.9
20210923151645 75 75 3.0 5.0 0.00 0.00 0.00 53 1020.8
20210923150146 73 83 2.0 5.0 0.00 0.00 0.00 58 1020.7
20210923144612 71 52 1.0 4.0 0.00 0.00 0.00 65 1020.6
20210923143217 70 84 1.0 3.0 0.00 0.00 0.00 65 1020.6
20210923141624 68 90 1.0 3.0 0.00 0.00 0.00 68 1020.4
20210923140147 66 0 0.0 3.0 0.00 0.00 0.00 71 1020.4
20210923134725 65 74 1.0 2.0 0.00 0.00 0.00 73 1020.4
20210923133231 63 71 0.0 2.0 0.00 0.00 0.00 75 1020.4
20210923131717 61 32 0.0 2.0 0.00 0.00 0.00 80 1020.2
20210923130152 59 30 0.0 1.0 0.00 0.00 0.00 84 1020.3
20210923124723 56 0 0.0 0.0 0.00 0.00 0.00 90 1020.3
20210923123154 56 0 0.0 0.0 0.00 0.00 0.00 89 1020.3
20210923121700 56 0 0.0 0.0 0.00 0.00 0.00 89 1020.2
20210923120247 56 0 0.0 0.0 0.00 0.00 0.00 88 1020.2
20210923114627 56 0 0.0 0.0 0.00 0.00 0.00 88 1020.1
20210923113152 56 0 0.0 0.0 0.00 0.00 0.00 88 1020.0
20210923111640 56 0 0.0 0.0 0.00 0.00 0.00 87 1019.9
20210923110140 57 0 0.0 0.0 0.00 0.00 0.00 87 1019.9
20210923104643 57 0 0.0 0.0 0.00 0.00 0.00 87 1020.0
20210923103130 57 0 0.0 0.0 0.00 0.00 0.00 86 1019.9
20210923101626 57 0 0.0 0.0 0.00 0.00 0.00 85 1019.9
20210923100246 58 0 0.0 0.0 0.00 0.00 0.00 85 1019.8
20210923094655 58 0 0.0 0.0 0.00 0.00 0.00 84 1019.9
20210923093100 58 0 0.0 0.0 0.00 0.00 0.00 83 1019.9
20210923091618 59 0 0.0 0.0 0.00 0.00 0.00 83 1020.0
20210923090223 59 0 0.0 0.0 0.00 0.00 0.00 82 1020.1
20210923084702 59 0 0.0 0.0 0.00 0.00 0.00 83 1020.1
20210923083207 59 0 0.0 0.0 0.00 0.00 0.00 84 1020.2
20210923081704 59 0 0.0 0.0 0.00 0.00 0.00 85 1020.1
20210923080124 59 0 0.0 0.0 0.00 0.00 0.00 85 1020.3
20210923074612 60 0 0.0 0.0 0.00 0.00 0.00 84 1020.3
20210923073124 60 0 0.0 0.0 0.00 0.00 0.00 83 1020.3
20210923071609 60 0 0.0 0.0 0.00 0.00 0.00 83 1020.2
20210923070205 60 0 0.0 0.0 0.00 0.00 0.00 84 1020.4
20210923064609 60 0 0.0 0.0 0.00 0.00 0.00 82 1020.4
20210923063138 61 0 0.0 0.0 0.00 0.00 0.00 82 1020.5